Date String (YYYY-MM-DD hh:mm:ss) UTC,Instrument flags,absolute air pressure of the measurement (hPa),sample flow rate (lpm),inlet stack bypass flow (lpm),air temperature of the measurement (°C),ambient temperature measured by the external sensor (°C),aerosol sample conditioner tube jacket temperature (°C),OPC LED temperature (°C),internal box temperature (°C),relative humidity of the measurement (%),span deviation,mass concentration of particles derived from Lorenz-Mie calculation of OPC scattering (μg/m³),mass concentration of particles derived from Lorenz-Mie calculation of OPC scattering (μg/m³),mass concentration of particles derived from Lorenz-Mie calculation of OPC scattering (μg/m³)
DateTimeUTC,F1_M11,P_M11,Q1_M11,Q2_M11,T1_M11,T2_M11,T3_M11,T4_M11,T5_M11,U1_M11,ZSPAN_M11,X0_M11,X2_M11,X1_M11
2024-05-25 13:00:00,SystemResetWarning,0820.8,4.99,000.00,028.4,027.6,000.0,036.8,030.1,013.6,0000.0,0015.91,0004.43,0002.51
2024-05-25 13:01:00,SystemResetWarning,0820.8,5.01,000.00,028.4,027.6,000.0,036.8,030.1,014.2,0000.0,0016.11,0004.43,0002.49
2024-05-25 13:02:00,SystemResetWarning,0820.8,4.99,000.00,028.4,027.6,000.0,036.8,030.2,013.7,0000.0,0016.90,0004.39,0002.48
2024-05-25 13:03:00,SystemResetWarning,0820.8,4.99,000.00,028.4,027.6,000.0,036.8,030.2,014.7,0000.0,0018.15,0004.36,0002.47
2024-05-25 13:04:00,SystemResetWarning,0820.8,5.01,000.00,028.5,027.6,000.0,036.8,030.2,015.5,0000.0,0018.47,0004.38,0002.44
2024-05-25 13:05:00,SystemResetWarning,0820.8,5.02,000.00,028.5,027.7,000.0,036.8,030.2,014.7,0000.0,0017.91,0004.39,0002.44
2024-05-25 13:06:00,SystemResetWarning,0820.8,4.98,000.00,028.5,027.7,000.0,036.8,030.2,013.9,0000.0,0017.65,0004.37,0002.40
2024-05-25 13:07:00,SystemResetWarning,0820.8,4.99,000.00,028.5,027.7,000.0,036.8,030.2,014.4,0000.0,0016.79,0004.28,0002.37
2024-05-25 13:08:00,SystemResetWarning,0820.8,5.00,000.00,028.5,027.7,000.0,036.8,030.2,014.1,0000.0,0016.44,0004.18,0002.35
2024-05-25 13:09:00,SystemResetWarning,0820.7,5.00,000.00,028.5,027.7,000.0,036.8,030.2,013.8,0000.0,0016.29,0004.15,0002.35
2024-05-25 13:10:00,SystemResetWarning,0820.7,5.01,000.00,028.5,027.7,000.0,036.8,030.2,014.1,0000.0,0017.06,0004.15,0002.35
2024-05-25 13:11:00,SystemResetWarning,0820.7,5.00,000.00,028.5,027.7,000.0,036.8,030.2,013.7,0000.0,0017.60,0004.11,0002.34
2024-05-25 13:12:00,SystemResetWarning,0820.7,5.00,000.00,028.5,027.7,000.0,036.8,030.2,013.2,0000.0,0016.95,0004.09,0002.32
2024-05-25 13:13:00,SystemResetWarning,0820.7,4.99,000.00,028.5,027.7,000.0,036.8,030.2,013.7,0000.0,0016.24,0004.04,0002.29
2024-05-25 13:14:00,SystemResetWarning,0820.7,4.99,000.00,028.5,027.7,000.0,036.8,030.2,014.9,0000.0,0014.69,0003.99,0002.26
2024-05-25 13:15:00,SystemResetWarning,0820.7,5.02,000.00,028.5,027.7,000.0,036.8,030.2,015.0,0000.0,0012.81,0003.93,0002.24
2024-05-25 13:16:00,SystemResetWarning,0820.8,5.00,000.00,028.5,027.7,000.0,036.8,030.2,014.4,0000.0,0013.07,0003.88,0002.23
2024-05-25 13:17:00,SystemResetWarning,0820.8,4.99,000.00,028.5,027.7,000.0,036.8,030.3,014.5,0000.0,0013.60,0003.77,0002.21
2024-05-25 13:18:00,SystemResetWarning,0820.8,5.01,000.00,028.5,027.7,000.0,036.9,030.3,014.0,0000.0,0013.34,0003.72,0002.20
2024-05-25 13:19:00,SystemResetWarning,0820.8,5.01,000.00,028.5,027.7,000.0,036.9,030.3,013.8,0000.0,0013.24,0003.74,0002.19
2024-05-25 13:20:00,SystemResetWarning,0820.8,5.01,000.00,028.5,027.8,000.0,036.9,030.3,014.5,0000.0,0013.14,0003.73,0002.19
2024-05-25 13:21:00,SystemResetWarning,0820.8,5.00,000.00,028.6,027.8,000.0,036.9,030.2,014.2,0000.0,0012.23,0003.70,0002.18
2024-05-25 13:22:00,SystemResetWarning,0820.8,4.99,000.00,028.6,027.8,000.0,036.9,030.2,014.6,0000.0,0011.54,0003.68,0002.18
2024-05-25 13:23:00,SystemResetWarning,0820.7,4.99,000.00,028.6,027.8,000.0,036.9,030.3,014.6,0000.0,0011.29,0003.70,0002.18
2024-05-25 13:24:00,SystemResetWarning,0820.6,5.00,000.00,028.6,027.8,000.0,036.9,030.3,014.5,0000.0,0010.81,0003.72,0002.20
2024-05-25 13:25:00,SystemResetWarning,0820.7,5.00,000.00,028.6,027.8,000.0,036.9,030.2,014.5,0000.0,0010.99,0003.74,0002.21
2024-05-25 13:26:00,SystemResetWarning,0820.7,5.00,000.00,028.6,027.8,000.0,036.9,030.3,014.9,0000.0,0011.15,0003.74,0002.22
2024-05-25 13:27:00,SystemResetWarning,0820.7,5.00,000.00,028.6,027.8,000.0,036.9,030.3,016.2,0000.0,0010.93,0003.78,0002.22
2024-05-25 13:28:00,SystemResetWarning,0820.8,5.01,000.00,028.6,027.8,000.0,036.9,030.2,015.8,0000.0,0010.23,0003.79,0002.22
2024-05-25 13:29:00,SystemResetWarning,0820.8,5.01,000.00,028.6,027.8,000.0,036.9,030.3,016.2,0000.0,0010.66,0003.80,0002.23
2024-05-25 13:30:00,SystemResetWarning,0820.8,5.00,000.00,028.6,027.8,000.0,036.9,030.3,016.5,0000.0,0010.81,0003.77,0002.23
2024-05-25 13:31:00,SystemResetWarning,0820.8,4.99,000.00,028.6,027.8,000.0,036.9,030.3,015.8,0000.0,0010.60,0003.78,0002.23
2024-05-25 13:32:00,SystemResetWarning,0820.8,5.00,000.00,028.6,027.8,000.0,036.9,030.3,015.3,0000.0,0010.50,0003.74,0002.23
2024-05-25 13:33:00,SystemResetWarning,0820.9,5.00,000.00,028.6,027.8,000.0,036.9,030.3,015.0,0000.0,0011.20,0003.79,0002.24
2024-05-25 13:34:00,SystemResetWarning,0820.8,5.01,000.00,028.6,027.8,000.0,036.9,030.3,015.5,0000.0,0011.80,0003.84,0002.27
2024-05-25 13:35:00,SystemResetWarning,0820.8,5.01,000.00,028.6,027.8,000.0,036.9,030.3,015.2,0000.0,0012.22,0003.87,0002.27
2024-05-25 13:36:00,SystemResetWarning,0820.8,5.00,000.00,028.6,027.8,000.0,036.9,030.3,014.8,0000.0,0012.54,0003.87,0002.28
2024-05-25 13:37:00,SystemResetWarning,0820.8,4.99,000.00,028.6,027.8,000.0,036.9,030.3,015.8,0000.0,0012.45,0003.84,0002.26
2024-05-25 13:38:00,SystemResetWarning,0820.8,4.99,000.00,028.6,027.9,000.0,036.9,030.3,016.4,0000.0,0012.52,0003.77,0002.26
2024-05-25 13:39:00,SystemResetWarning,0820.8,4.99,000.00,028.6,027.9,000.0,036.9,030.3,016.0,0000.0,0012.35,0003.75,0002.28
2024-05-25 13:40:00,SystemResetWarning,0820.7,5.00,000.00,028.6,027.9,000.0,037.0,030.3,016.1,0000.0,0012.56,0003.76,0002.27
2024-05-25 13:41:00,SystemResetWarning,0820.8,5.01,000.00,028.6,027.9,000.0,037.0,030.3,015.6,0000.0,0012.59,0003.82,0002.28
2024-05-25 13:42:00,SystemResetWarning,0820.7,5.01,000.00,028.7,027.9,000.0,037.0,030.3,015.1,0000.0,0013.38,0003.87,0002.27
2024-05-25 13:43:00,SystemResetWarning,0820.7,5.01,000.00,028.7,027.9,000.0,037.0,030.3,015.6,0000.0,0013.54,0003.90,0002.26
2024-05-25 13:44:00,SystemResetWarning,0820.7,5.00,000.00,028.7,027.9,000.0,037.0,030.4,015.5,0000.0,0012.96,0003.82,0002.25
2024-05-25 13:45:00,SystemResetWarning,0820.7,4.99,000.00,028.7,027.9,000.0,037.0,030.4,015.9,0000.0,0014.25,0003.78,0002.23
2024-05-25 13:46:00,SystemResetWarning,0820.7,4.99,000.00,028.7,027.9,000.0,037.0,030.4,015.4,0000.0,0014.75,0003.74,0002.23
2024-05-25 13:47:00,SystemResetWarning,0820.8,5.00,000.00,028.7,027.9,000.0,037.0,030.4,015.0,0000.0,0014.35,0003.74,0002.22
2024-05-25 13:48:00,SystemResetWarning,0820.7,5.01,000.00,028.7,027.9,000.0,037.0,030.4,016.1,0000.0,0014.32,0003.76,0002.21
2024-05-25 13:49:00,SystemResetWarning,0820.8,5.00,000.00,028.7,027.9,000.0,037.0,030.4,016.1,0000.0,0014.15,0003.79,0002.21
2024-05-25 13:50:00,SystemResetWarning,0820.7,5.00,000.00,028.7,027.9,000.0,037.0,030.4,015.2,0000.0,0014.13,0003.78,0002.19
2024-05-25 13:51:00,SystemResetWarning,0820.7,5.00,000.00,028.7,028.0,000.0,037.0,030.4,015.3,0000.0,0013.58,0003.73,0002.18
2024-05-25 13:52:00,SystemResetWarning,0820.6,4.99,000.00,028.7,028.0,000.0,037.0,030.4,015.0,0000.0,0013.14,0003.66,0002.16
2024-05-25 13:53:00,SystemResetWarning,0820.6,4.99,000.00,028.7,028.0,000.0,037.0,030.4,015.1,0000.0,0012.53,0003.61,0002.15
2024-05-25 13:54:00,SystemResetWarning,0820.6,4.99,000.00,028.7,028.0,000.0,037.0,030.4,015.2,0000.0,0012.47,0003.59,0002.16
2024-05-25 13:55:00,SystemResetWarning,0820.7,5.00,000.00,028.8,028.0,000.0,037.0,030.4,014.7,0000.0,0013.41,0003.66,0002.16
2024-05-25 13:56:00,SystemResetWarning,0820.7,5.01,000.00,028.8,028.0,000.0,037.0,030.4,015.1,0000.0,0012.29,0003.67,0002.16
2024-05-25 13:57:00,SystemResetWarning,0820.7,5.01,000.00,028.8,028.0,000.0,037.1,030.5,014.5,0000.0,0011.88,0003.67,0002.16
2024-05-25 13:58:00,SystemResetWarning,0820.8,5.00,000.00,028.8,028.0,000.0,037.1,030.5,014.3,0000.0,0011.60,0003.69,0002.16
2024-05-25 13:59:00,SystemResetWarning,0820.8,5.00,000.00,028.8,028.0,000.0,037.1,030.5,014.5,0000.0,0011.91,0003.69,0002.16
